Location: Trebic
(49.2170°N, 15.8830°E)
Time: 14:44:51
(UTC+02:00)

Transit 4A - Pass Details

Date: 02 September 2019
Orbit: 865 x 980 km, 66.8° (Epoch: 19 September)

Event Time Altitude Azimuth Distance (km) Brightness Sun altitude
Rises 01:06:19 0° 323° (NW) 3,638 11.7 -32.6°
Reaches altitude 10° 01:08:55 10° 324° (NW) 2,673 10.8 -32.6°
Enters shadow 01:13:52 59° 330° (NNW) 1,071 8.3 -32.5°
Maximum altitude 01:15:09 87° 53° (NE) 932 - -32.5°
Drops below altitude 10° 01:21:10 10° 145° (SE) 2,577 - -32.4°
Sets 01:23:37 0° 145° (SE) 3,498 - -32.4°
